Location: Newark
(36.7000°N, 45.1333°E)
Time: 11:54:24
(UTC+00:00)

LightSail 2 - Pass Details

Date: 23 January 2020
Orbit: 700 x 722 km, 24.0° (Epoch: 19 February)

Event Time Altitude Azimuth Distance (km) Brightness Sun altitude
Rises 15:49:12 0° 245° (WSW) 3,080 9.9 -18.9°
Reaches altitude 10° 15:52:15 10° 228° (SW) 2,166 8.5 -19.5°
Maximum altitude 15:55:47 19° 184° (S) 1,653 7.2 -20.2°
Enters shadow 15:58:25 13° 148° (SSE) 1,958 7.2 -20.7°
